Погода в Должанске

Украина / Луганская область     48°04′22″N   39°39′29″E
темп.,
°C
ветер,
м/с
пор.,
м/с
влажн.,
%
обл.,
%
осадки,
мм/ч
давл.,
гПа
погр.,
м
3 августа, вт
вт300:00+25сз22410 0.0 101112
03:00+24с11470 0.0 101111
06:00+24ссз225099 0.0 101118
09:00+31юв22341 0.0 1011673
12:00+35зюз45240 0.0 10113247
15:00+36з46213 0.0 10103469
18:00+30сз574320 0.0 1010567
21:00+24сз101460100 0.1 1012609
4 августа, ср
ср400:00+22ссв2467100 0.0 1013115
03:00+20сз227399 0.0 101331
06:00+19с358345 0.0 1014149
09:00+24с5658100 0.0 1015645
12:00+28с544198 0.0 10151510
15:00+29ссз54290 0.0 10152367
18:00+27с54316 0.0 10151837
21:00+22с4941100 0.0 1016168
5 августа, чт
чт500:00+21с47434 0.0 1016110
03:00+19ссв464994 0.0 101788
06:00+19св355983 0.0 1017106
09:00+26всв4540100 0.0 1017759
12:00+29в4330100 0.0 10162265
15:00+30всв3326100 0.0 10152658
18:00+30всв442826 0.0 10141140
21:00+24всв49365 0.0 1014138
6 августа, пт
пт600:00+22в411385 0.0 1013179
03:00+21в4113831 0.0 1013174
06:00+21вюв513445 0.1 1013254
09:00+29вюв793018 0.1 1012692
12:00+33вюв77255 0.0 10112037
15:00+35в67224 0.0 10092696
18:00+33в78254 0.0 10081047
21:00+28в6142998 0.0 1008300
7 августа, сб
сб700:00+27в717290 0.0 1008418
03:00+26вюв817300 0.0 1007505
06:00+25вюв7172984 0.0 1007501
09:00+30юв8142781 0.0 10081010
12:00+32юв7926100 0.0 10071270
15:00+33ююв492499 0.0 10062725
18:00+30всв5930100 0.0 1006377
21:00+27в2238100 0.0 100626